Regional Weather Roundup
Issued by NWS Wakefield, VA

Home | Current Version | Previous Version | Text Only | Print | Product List | Glossary Off
Versions: 1 2 3 4 5 6 7 8 9 10 11 12 13 14 15 16 17 18 19 20 21 22 23 24 25 26 27 28 29 30 31 32 33 34 35 36 37 38 39 40 41 42 43 44 45 46 47 48 49 50

000
ASUS41 KAKQ 201215
RWRAKQ

REGIONAL WEATHER ROUNDUP
NATIONAL WEATHER SERVICE WAKEFIELD VA
700 AM EST TUE FEB 20 2018

Note: "fair" indicates few or no clouds below 12,000 feet with no
significant weather and/or obstructions to visibility. * = Denotes
station may not report precipitation (e.g., rain,snow,etc.),
thunder or fog.

VAZ042-051-052>054-056-201300-
NORTHERN VIRGINIA

CITY           SKY/WX    TMP DP  RH WIND       PRES   REMARKS
WASH NATIONAL  CLOUDY    54  53  97 S14       30.37R
DULLES         CLOUDY    51  51 100 S16       30.35R FOG
FORT BELVOIR   CLOUDY    54  52  94 S6        30.38R
QUANTICO       MOCLDY    52  51  97 SW9       30.39R
FREDERICKSBRG* MOCLDY    55  55 100 S6        30.38S
STAFFORD*      MOCLDY    55  55 100 CALM      30.43S
WARRENTON      CLOUDY    53  49  86 CALM      30.38R
CULPEPER*      CLOUDY    52  50  92 SW7       30.39S
MANASSAS*      CLOUDY    52  50  93 S10       30.38R
LEESBURG*      CLOUDY    46  46 100 S8        30.35S FOG
WINCHESTER     FAIR      50  48  93 SW7       30.33S
FRONT ROYAL*   FAIR      55  52  88 SW7       30.32R
LURAY*         FAIR      54  52  94 S6        30.35R
$$

VAZ048-049-060>072-079>083-201300-
CENTRAL AND SOUTH CENTRAL VIRGINIA

CITY           SKY/WX    TMP DP  RH WIND       PRES   REMARKS
RICHMOND       DRZL/FOG  53  53 100 S3        30.42R VSB 1
CHESTERFIELD*  FOG       53  52  96 CALM      30.43R VSB 1
PETERSBURG*    CLOUDY    54  52  94 CALM      30.44R FOG
HANOVER        CLOUDY    55  54  96 S6        30.43R
TAPPAHANNOCK*  CLOUDY    56  55  99 SW8G17    30.43R FOG
QUINTON*       CLOUDY    53  53 100 S8        30.42R FOG
CHARLOTTSVILLE FOG       51  50  96 SW3       30.37S VSB 1/4
GORDONSVILLE*  CLOUDY    51  51 100 SW10      30.38S
ORANGE*        CLOUDY    50  50 100 S5        30.38S
LOUISA*        CLOUDY    53  52  97 SW6       30.44R
BUMPASS*       CLOUDY    52  51  95 SW8       30.40R
FARMVILLE*     CLOUDY   N/A N/A N/A S6        30.41R HAZE
CREWE*         CLOUDY    53  53 100 CALM      30.42R
FORT PICKETT*  CLOUDY    52  52 100 SW5       30.43R
CHASE CITY*    CLOUDY    51  51 100 CALM      30.43S VSB 1
CLARKSVILLE*   CLOUDY    50  50 100 CALM      30.44R
SOUTH HILL*    CLOUDY    51  51 100 CALM      30.50R VSB 3/4
LAWRENCEVILLE* CLOUDY    52  51  97 SW3       30.44R VSB 3/4
EMPORIA*       FOG       50  50 100 CALM      30.46R VSB 1/2
$$

VAZ088>098-201300-
SOUTHEAST VIRGINIA

CITY           SKY/WX    TMP DP  RH WIND       PRES   REMARKS
NORFOLK        FOG       60  59  96 CALM      30.44R VSB 3/4
VIRGINIA BEACH CLOUDY    63  61  93 SW9       30.43R FOG
NORFOLK NAVAL  FOG       55  54  96 CALM      30.45R VSB 1/4
WEST POINT*    CLOUDY    54  53  97 CALM      30.45R
SALUDA*        CLOUDY    56  56 100 CALM      30.42R
NEWPORT NEWS   FOG       54  54 100 S3        30.44R VSB 3/4
LANGLEY AFB    FOG       55  55 100 SW3       30.44R VSB 1/8
FORT EUSTIS    FOG       54  53  98 CALM      30.41R VSB 1/4
WILLIAMSBURG*  CLOUDY    55  54  94 CALM      30.45R VSB 1/2
HR EXEC AP*    FOG       55  55 100 CALM      30.45R VSB 1/4
FRANKLIN*      FOG       53  52  97 CALM      30.45R VSB 1/4
US460-WAKEFLD  FOG       54  54 100 CALM      30.44R VSB 1/4
$$

VAZ020-022-025-037-045-201300-
WEST CENTRAL AND SOUTHWEST VIRGINIA

CITY           SKY/WX    TMP DP  RH WIND       PRES   REMARKS
STAUNTON*      FAIR      44  43  98 CALM      30.39R FOG
WAYNESBORO*    FAIR      45  45  99 CALM      30.37R
HOT SPRINGS VA FAIR      53  51  94 SW14G20   30.41R
LYNCHBURG      CLOUDY    48  48 100 CALM      30.41R FOG
DANVILLE       FOG       51  51 100 CALM      30.43R VSB 3/4
SOUTH BOSTON*  CLOUDY    52  51  95 S3        30.44R VSB 3/4
MARTINSVILLE   CLOUDY    50  49  97 CALM      30.44S FOG
ROANOKE        FOG       48  48 100 CALM      30.42R VSB 1/4
BLACKSBURG     FOG       47  47 100 CALM      30.42S VSB 1/2
DUBLIN*        FOG       45  45 100 CALM      30.41R VSB 1/2
MARION*        FAIR      49  39  69 E3        30.41R
HILLSVILLE*    FAIR      55  54  96 S7        30.40R
RICHLANDS*     FAIR      60  49  68 S9G16     30.35S
WISE*          FAIR      55  52  88 SW8       30.35R
ABINGDON*      FAIR      49  48  97 E3        30.35S
$$

MDZ021>025-VAZ099-100-201300-
SOUTHERN MARYLAND AND THE DELMARVA PENINSULA

CITY           SKY/WX    TMP DP  RH WIND       PRES   REMARKS
PATUXENT RIVER CLOUDY    56  56 100 SW12      30.40R FOG
BAY BRIDGE APT CLOUDY    50  50 100 S7        30.37R FOG
LEONARDTOWN    CLOUDY    54  54 100 SW12G21   30.42R
DOVER          FAIR      56  55  95 S14       30.35R
GEORGETOWN     CLOUDY    60  58  92 SW13G24   30.39R FOG
EASTON         CLOUDY    55  54  94 SW14G20   30.41R FOG
CAMBRIDGE        N/A     55  55 100 VRB6      30.40R FOG
SALISBURY      CLOUDY    59  58  96 SW9       30.40R FOG
OCEAN CITY     CLOUDY    50  50 100 SW6       30.41R FOG
WALLOPS ISLAND FOG       53  53 100 S7        30.42R VSB 1/2
ACCOMACK*      FOG       58  58  99 SW5       30.42S VSB 1
$$

NCZ012>017-030>032-201300-
NORTH CENTRAL AND EASTERN NORTH CAROLINA

CITY           SKY/WX    TMP DP  RH WIND       PRES   REMARKS
ROANOKE RAPIDS NOT AVBL
RALEIGH        FOG       52  52 100 CALM      30.44R VSB 1/4
ELIZABETH CITY FAIR      63  63 100 S6        30.44R
AHOSKIE*       RAIN      51  51 100 CALM      30.45R VSB<1/4
EDENTON*       FOG       62  62 100 S5        30.45R VSB 1/4
CURRITUCK*     CLOUDY    59  58  97 S3        30.45R FOG
KILL DEVIL HLS FAIR     N/A N/A N/A CALM      30.45R
MANTEO         FAIR      60  60  99 S7        30.46S
CAPE HATTERAS  CLOUDY    63  61  93 S7        30.47R
TARBORO*       NOT AVBL
GOLDSBORO      FOG       59  57  94 CALM      30.43R VSB 1/4
WASHINGTON     CLOUDY    64  63  97 SE3       30.45S FOG
GREENVILLE     CLOUDY    64  64 100 S5        30.44R FOG
NEW BERN       LGT RAIN  65  65 100 S5        30.46S FOG
WILMINGTON     MOCLDY    65  65 100 SE5       30.44R
$$

VAZ048-201300-
ELSEWHERE

CITY           SKY/WX    TMP DP  RH WIND       PRES   REMARKS
HARRISBURG PA  FOG       41  40  96 CALM      30.32R VSB<1/4
BALTIMORE      CLOUDY    52  52 100 SW7       30.35R FOG
ANNAPOLIS      CLOUDY    56  55  97 VRB5      30.35R
ANDREWS AFB    CLOUDY    54  54 100 S14       30.37R
PHILADELPHIA   DRIZZLE   51  51 100 SW14      30.35R FOG
HENDERSON NC   FOG       48  48  99 CALM      30.44R VSB 1/2
GREENSBORO     DRZL/FOG  52  52 100 CALM      30.42R VSB 1/4
ROCKY MOUNT    FOG       53  53 100 CALM      30.44S VSB 1/4
$$

VAZ100-201300-
MARINE

STATION/POSITION TIME  TEMP    WIND        PRES    WAVE   SWELL
                       AIR SEA DIR/SP/G            HT/PER HT/PER
                 (UTC) (F)     (DEG/KT/KT) (MB)    (FT/S) (FT/S)
BRANDYWINE LGT   1142   55     250/ 19/ 23 1028.8R
CAPE MAY NJ      1148   53 41  210/  8/ 11 1028.5R
LEWES DE         1142   61 40  250/ 11/ 16 1028.5R
15NM E FENWICK I 1150   46 42  190/ 10/ 12 1029.9R   3/11   3/11
OCEAN-CITY-INLET 1148   45 44  220/  7/  8 1029.9R
WACHAPREAGUE VA  1148   51 48  220/  3/  5 1030.3R
THOMAS POINT MD  1200   47 38  200/ 11/ 12   N/A
GOOSES REEF MD   1200   48 38  220/ 10/ 12 1029.4    1/ 2
COVE POINT MD    1148   55     240/ 10/ 15 1029.8R
SOLOMONS ISLAND  1148   54 41  240/ 18/ 22 1029.1R
BISHOPS HEAD MD  1148   50 44  210/  8/ 10 1030.0R
POTOMAC MD       1200   49 41   80/  8/ 10 1029.4
CAMBRIDGE MD     1148   54 43              1029.9R
LEWISETTA VA     1148   55 44  260/  7/ 10 1029.9R
RAPPAHANNOCK LGT 1148          180/ 10/ 10 1030.9R
STINGRAY PT      1200   51 42  250/ 10/ 10 1031.5    0
YORK RVR RNG VA  1148   53     260/  6/  7 1031.1R
YORKTOWN VA      1148   55 45  220/  5/  7 1030.2R
DOMINION TERM VA 1148   52     190/  4/  4 1030.8R
KIPTOPEKE VA     1142      44  310/  1/  2   N/A
CAPE HENRY VA    1148   50      30/  5/  5   N/A
S CRANEY ISL VA  1148   53      CALM  /  2 1030.5R
CAPE HENRY BUOY  1200      44                N/A     3/ 6   2/11
1ST LANDING BUOY 1200   48 42  300/  4/  6 1030.9    1/ 5
CAPE CHARLES BUO 1151      43                N/A     3/ 6   2/12
64NM E OF VA BCH 1150   54 49  190/ 10/ 12 1031.6R   3/ 6   3/ 6
DUCK PIER NC     1148   63 44  190/ 11/ 13 1030.5R
44100 DUCK FRF   1145      44                N/A     3/ 5   2/13
44056 DUCK FRF   1200      46                N/A     3/ 5   2/11
OREGON INLET NC  1142   58 50  170/  8/ 11 1031.4R
HATTERAS NC      1148   63 56  170/  5/  7 1031.6R
DIAMOND SHLS NC  1150   72 72  170/ 16/ 17 1032.2R   3/ 9   2/ 9
CAPE LOOKOUT NC  1200          180/  7/  7 1031.7R
$$



USA.gov is the U.S. government's official web portal to all federal, state and local government web resources and services.